Voltar ao catálogo

FENGYUN 1C DEB

AtivoSSO
NORAD 30880·DEBRIS·🇨🇳 China

Lançado May 10, 1999 de Taiyuan Satellite Launch Center

Loading…

Próximas Passagens (próximas 24 horas)

TLE

AtualizadoSource: Space-Track

Época: Sep 14, 2026, 03:32 UTC

1 30880U 99025AXS 26257.14780771  .00001662  00000-0  69944-3 0  9991
2 30880  98.7779 334.8478 0020745  29.2027 331.0309 14.27034103  6386

Acompanhe FENGYUN 1C DEB em tempo real com AllMySat

Download on the App Store